Regional Weather Roundup
Issued by NWS Burlington, VT

Current Version | Previous Version | Graphics & Text | Print | Product List | Glossary Off
Versions: 1 2 3 4 5 6 7 8 9 10 11 12 13 14 15 16 17 18 19 20 21 22 23 24 25 26 27 28 29 30 31 32 33 34 35 36 37 38 39 40 41 42 43 44 45 46 47 48 49 50

432
ASUS41 KBTV 262110
RWRBTV
VERMONT REGIONAL WEATHER ROUNDUP
NATIONAL WEATHER SERVICE BURLINGTON VT
500 PM EDT FRI MAY 26 2017

NOTE: "FAIR" INDICATES FEW OR NO CLOUDS BELOW 12,000 FEET WITH NO
SIGNIFICANT WEATHER AND/OR OBSTRUCTIONS TO VISIBILITY.

* THESE REPORTS ARE NOT UNDER NWS QUALITY CONTROL AND/OR DO NOT
  REPORT WEATHER SUCH AS PRECIPITATION AND FOG.

VTZ001>019-262200-
_____VERMONT_____


CITY           SKY/WX    TMP DP  RH WIND       PRES   REMARKS
BURLINGTON     CLOUDY    57  52  83 NW16      29.65R
MONTPELIER     CLOUDY    54  53  97 N7        29.65R
MORRISVILLE    CLOUDY    53  50  89 NW6       29.65R
ST. JOHNSBURY*   N/A     56  48  74 MISG      29.60R
LYNDONVILLE*   CLOUDY    54  48  81 NW7       29.63R
MIDDLEBURY*    CLOUDY    55  51  87 N10G18    29.65R
RUTLAND*       CLOUDY    55  51  86 NW8G16    29.64R
SPRINGFIELD    CLOUDY    61  50  67 NW15      29.60R
HIGHGATE*      CLOUDY    55  51  85 N7        29.67R
NEWPORT*       CLOUDY    50  49  95 N15       29.66R FOG
BENNINGTON     CLOUDY    57  53  86 NW5       29.63R
SUTTON*          N/A     52 N/A N/A MISG        N/A

_____LAKE CHAMPLAIN_____


CITY           SKY/WX    TMP DP  RH WIND       PRES   REMARKS
COLCHESTER RF*   N/A     54  52  94 N18         N/A

$$

NYZ007-026>031-035-052-083-087-262200-
_____NORTHERN NEW YORK_____


CITY           SKY/WX    TMP DP  RH WIND       PRES   REMARKS
PLATTSBURGH    LGT RAIN  55  51  86 N13       29.68R
SARANAC LAKE   LGT RAIN  51  51 100 VRB5      29.68R
MASSENA        LGT RAIN  56  52  86 N6        29.74R
OGDENSBURG*    DRIZZLE   57  54  88 N6        29.73S
POTSDAM*       RAIN      55  55 100 N8        29.73R
WATERTOWN      CLOUDY    61  54  77 NW8       29.73R
FT DRUM        PTSUNNY   57  52  83 N8        29.73R
ALBANY         DRIZZLE   61  58  90 NW7       29.64R
GLENS FALLS    CLOUDY    57  54  89 NW3       29.64R

$$
NHZ002-005-011-262200-
_____NEW HAMPSHIRE_____


CITY           SKY/WX    TMP DP  RH WIND       PRES   REMARKS
LEBANON        CLOUDY    59  54  83 VRB7      29.59R
KEENE          PTSUNNY   59  55  87 VRB3      29.60R
MT WASHINGTON  FOG       37  37 100 NW10        N/A  VSB 1/8 WCI  30
PLYMOUTH       CLOUDY    61  49  65 W7        29.57R
WHITEFIELD     CLOUDY    55  46  71 NW8       29.60R

$$

_____REGIONAL QUEBEC LOCATIONS_____


CITY           SKY/WX    TMP DP  RH WIND       PRES   REMARKS
MONTREAL       LGT RAIN  55  48  76 N13       29.71R
QUEBEC CITY    CLOUDY    55  41  58 E13G20    29.72R
SHERBROOKE     LGT RAIN  50  48  93 NE9       29.66R FOG

_____REGIONAL ONTARIO LOCATIONS_____


CITY           SKY/WX    TMP DP  RH WIND       PRES   REMARKS
OTTAWA         LGT RAIN  55  54  94 E6        29.75R

______KEY______
VSB  - VISIBILITY IN MILES
WCI  - WIND CHILL INDEX
HX   - HEAT INDEX
$$
NNNN




USA.gov is the U.S. government's official web portal to all federal, state and local government web resources and services.